This demonstration page uses our WeatherBlox Daily Observations layout. Learn more.

Left ArrowRight Arrow

Hourly Observations for July 4, 2022

Temp ( °F °C ) Dew Point ( °F °C ) Humidity (%) Winds ( mph kmh ) Pressure ( in mb ) Visibility ( mi km ) Precip ( " mm )
12:51 am 00:51 Clear 70 21.1 47 8.3 44 44 N 6 9 30.08 1019 10 16 0.00 0.00
1:51 am 01:51 Clear 68 20 47 8.3 47 47 NNW 5 7 30.09 1019 10 16 0.00 0.00
2:51 am 02:51 Clear 65 18.3 47 8.3 52 52 NNW 6 9 30.10 1019 10 16 0.00 0.00
3:51 am 03:51 Clear 65 18.3 47 8.3 52 52 N 3 6 30.10 1019 10 16 0.00 0.00
4:51 am 04:51 Clear 64 17.8 47 8.3 54 54 N 6 9 30.11 1020 10 16 0.00 0.00
5:51 am 05:51 Sunny 62 16.7 47 8.3 58 58 N 3 6 30.12 1020 10 16 0.00 0.00
6:51 am 06:51 Sunny 65 18.3 48 8.9 54 54 N 3 6 30.13 1020 10 16 0.00 0.00
7:51 am 07:51 Sunny 69 20.6 48 8.9 47 47 NW 3 6 30.15 1021 10 16 0.00 0.00
8:51 am 08:51 Sunny 73 22.8 48 8.9 41 41 Calm 30.16 1021 10 16 0.00 0.00
9:51 am 09:51 Sunny 77 25 48 8.9 36 36 Calm 30.16 1021 10 16 0.00 0.00
10:51 am 10:51 Sunny 80 26.7 47 8.3 31 31 ENE 7 11 30.15 1021 10 16 0.00 0.00
11:51 am 11:51 Mostly Sunny 81 27.2 48 8.9 32 32 Calm 30.15 1021 10 16 0.00 0.00
12:51 pm 12:51 Sunny 83 28.3 47 8.3 28 28 VRB 3 6 30.13 1020 10 16 0.00 0.00
1:51 pm 13:51 Sunny 84 28.9 44 6.7 25 25 W 8 13 30.11 1020 10 16 0.00 0.00
2:51 pm 14:51 Sunny 84 28.9 47 8.3 27 27 WNW 12 19 30.10 1019 10 16 0.00 0.00
3:51 pm 15:51 Sunny 85 29.4 48 8.9 28 28 VRB 5 7 30.09 1019 10 16 0.00 0.00
4:51 pm 16:51 Mostly Sunny 84 28.9 50 10 31 31 SW 13 20 30.09 1019 10 16 0.00 0.00
5:51 pm 17:51 Sunny 84 28.9 51 10.6 32 32 WSW 13 20 30.08 1019 10 16 0.00 0.00
6:51 pm 18:51 Mostly Sunny 83 28.3 52 11.1 34 34 W 8 13 30.08 1019 10 16 0.00 0.00
7:51 pm 19:51 Sunny 81 27.2 51 10.6 35 35 WNW 9 15 30.09 1019 10 16 0.00 0.00
8:51 pm 20:51 Clear 80 26.7 51 10.6 37 37 W 3 6 30.09 1019 10 16 0.00 0.00
9:51 pm 21:51 Clear 78 25.6 53 11.7 42 42 Calm 30.10 1019 10 16 0.00 0.00
10:51 pm 22:51 Clear 77 25 54 12.2 45 45 S 3 6 30.10 1019 10 16 0.00 0.00
11:51 pm 23:51 Clear 74 23.3 57 13.9 56 56 S 3 6 30.10 1019 8 13 0.00 0.00

Powered by AerisWeather